TimeEET,TemperatureF,Dew PointF,Humidity,Sea Level PressureIn,VisibilityMPH,Wind Direction,Wind SpeedMPH,Gust SpeedMPH,PrecipitationIn,Events,Conditions,WindDirDegrees,DateUTC
12:00 AM,86.0,62.6,45,29.86,-9999.0,ENE,4.6,-,N/A,,Clear,60,2012-10-01 22:00:00
1:00 AM,87.8,60.8,40,29.86,-9999.0,Calm,Calm,-,N/A,,Clear,0,2012-10-01 23:00:00
1:06 AM,87.8,60.8,40,29.86,-9999.0,Calm,Calm,-,N/A,,Clear,0,2012-10-01 23:06:00
2:00 AM,89,60,28,29.84,6,NNE,2.3,,,,,20,2012-10-02 00:00:00
2:00 AM,89.6,60.8,38,29.86,-9999.0,NNE,2.3,-,N/A,,Clear,20,2012-10-02 00:00:00
3:00 AM,82.4,62.6,51,29.86,-9999.0,Calm,Calm,-,N/A,,Clear,0,2012-10-02 01:00:00
4:00 AM,80.6,62.6,54,29.86,-9999.0,Calm,Calm,-,N/A,,Clear,0,2012-10-02 02:00:00
5:00 AM,80.6,62.6,54,29.89,-9999.0,Calm,Calm,-,N/A,,Clear,0,2012-10-02 03:00:00
6:00 AM,80.6,62.6,54,29.89,-9999.0,Calm,Calm,-,N/A,,Clear,0,2012-10-02 04:00:00
7:00 AM,84.2,60.8,45,29.92,-9999.0,SSE,2.3,-,N/A,,Clear,160,2012-10-02 05:00:00
8:00 AM,89.6,62.6,40,29.92,-9999.0,North,2.3,-,N/A,,Clear,10,2012-10-02 06:00:00
9:00 AM,93.2,59.0,32,29.95,-9999.0,East,4.6,-,N/A,,Clear,100,2012-10-02 07:00:00
10:00 AM,93.2,64.4,38,29.92,-9999.0,NNW,2.3,-,N/A,,Clear,330,2012-10-02 08:00:00
11:00 AM,96.8,64.4,34,29.89,-9999.0,North,4.6,-,N/A,,Clear,360,2012-10-02 09:00:00
12:00 PM,100.4,60.8,27,29.86,-9999.0,Calm,Calm,-,N/A,,Clear,0,2012-10-02 10:00:00
1:00 PM,104.0,62.6,26,29.86,-9999.0,NNW,4.6,-,N/A,,Clear,330,2012-10-02 11:00:00
2:00 PM,104,61,16,29.83,6,North,2.3,,,,Partly Cloudy,350,2012-10-02 12:00:00
2:00 PM,104.0,60.8,24,29.83,-9999.0,North,2.3,-,N/A,,Clear,350,2012-10-02 12:00:00
3:00 PM,104.0,62.6,26,29.83,-9999.0,North,4.6,-,N/A,,Clear,360,2012-10-02 13:00:00
4:00 PM,104.0,60.8,24,29.83,-9999.0,North,4.6,-,N/A,,Clear,360,2012-10-02 14:00:00
5:00 PM,100.4,66.2,33,29.83,-9999.0,Calm,Calm,-,N/A,,Clear,0,2012-10-02 15:00:00
6:00 PM,95.0,66.2,39,29.83,-9999.0,Calm,Calm,-,N/A,,Clear,0,2012-10-02 16:00:00
7:00 PM,93.2,64.4,38,29.86,-9999.0,Calm,Calm,-,N/A,,Clear,0,2012-10-02 17:00:00
8:00 PM,92,58,23,29.85,6,Calm,Calm,,,,,,2012-10-02 18:00:00
8:00 PM,91.4,59.0,34,29.86,-9999.0,Calm,Calm,-,N/A,,Clear,0,2012-10-02 18:00:00
9:00 PM,93.2,57.2,30,29.89,6.2,SSE,5.8,-,N/A,,Partly Cloudy,150,2012-10-02 19:00:00
10:00 PM,96.8,55.4,25,29.92,6.2,ESE,3.5,-,N/A,,Scattered Clouds,110,2012-10-02 20:00:00
11:00 PM,87.8,57.2,35,29.89,6.2,West,4.6,-,N/A,,Scattered Clouds,280,2012-10-02 21:00:00